Вернуться в каталог

TEVEL2-7

АктивенЛюбительское радиоSSO
NORAD 63238·PAYLOAD·🇮🇱 Israel

Запущен Mar 15, 2025 с Vandenberg Space Force Base

Loading…

Ближайшие Пролёты (ближайшие 24 часа)

TLE

СвежийSource: AMSAT

Эпоха: Sep 13, 2026, 15:39 UTC

1 63238U 25052AE  26256.65221529  .00013320  00000-0  40647-3 0  9992
2 63238  97.3799 151.7775 0006007 167.3882 192.7513 15.34030967 83578

Отслеживайте TEVEL2-7 в реальном времени с AllMySat

Download on the App Store